Time,TemperatureF,DewpointF,PressureIn,WindDirection,WindDirectionDegrees,WindSpeedMPH,WindSpeedGustMPH,Humidity,HourlyPrecipIn,Conditions,Clouds,dailyrainin,SoftwareType,DateUTC
2013-10-14 11:20:00,88.3,75.1,29.71,East,90,0.0,0.0,65,0.00,,,0.00,VWS V14.01,2013-10-14 01:20:00,
2013-10-14 11:21:00,88.3,75.1,29.71,East,90,0.0,0.0,65,0.00,,,0.00,VWS V14.01,2013-10-14 01:21:00,
2013-10-14 11:22:00,88.3,75.1,29.71,East,90,0.0,0.0,65,0.00,,,0.00,VWS V14.01,2013-10-14 01:22:00,
2013-10-14 11:27:00,88.5,74.8,29.71,East,90,0.0,0.0,64,0.00,,,0.00,VWS V14.01,2013-10-14 01:27:00,
2013-10-14 11:32:00,88.3,74.6,29.71,East,90,0.0,0.0,64,0.00,,,0.00,VWS V14.01,2013-10-14 01:32:00,
2013-10-14 11:37:00,88.7,75.0,29.71,East,90,0.0,0.0,64,0.00,,,0.00,VWS V14.01,2013-10-14 01:37:00,
2013-10-14 11:43:00,88.9,74.7,29.71,East,90,0.0,0.0,63,0.00,,,0.00,VWS V14.01,2013-10-14 01:43:00,
2013-10-14 11:48:00,89.1,74.8,29.71,East,90,0.0,0.0,63,0.00,,,0.00,VWS V14.01,2013-10-14 01:48:00,
2013-10-14 11:53:00,88.7,74.5,29.71,East,90,0.0,0.0,63,0.00,,,0.00,VWS V14.01,2013-10-14 01:53:00,
2013-10-14 11:58:00,89.1,74.8,29.71,East,90,0.0,0.0,63,0.00,,,0.00,VWS V14.01,2013-10-14 01:58:00,
2013-10-14 12:03:00,89.1,75.3,29.68,East,90,0.0,0.0,64,0.00,,,0.00,VWS V14.01,2013-10-14 02:03:00,
2013-10-14 12:08:00,88.5,74.3,29.68,East,90,0.0,0.0,63,0.00,,,0.00,VWS V14.01,2013-10-14 02:08:00,
2013-10-14 12:13:00,88.9,74.7,29.68,East,90,0.0,0.0,63,0.00,,,0.00,VWS V14.01,2013-10-14 02:13:00,
2013-10-14 12:18:00,89.1,75.3,29.68,East,90,0.0,0.0,64,0.00,,,0.00,VWS V14.01,2013-10-14 02:18:00,
2013-10-14 12:23:00,88.7,74.5,29.68,East,90,0.0,0.0,63,0.00,,,0.00,VWS V14.01,2013-10-14 02:23:00,
2013-10-14 12:28:00,88.7,74.5,29.68,East,90,0.0,0.0,63,0.00,,,0.00,VWS V14.01,2013-10-14 02:28:00,
2013-10-14 12:33:00,88.0,73.8,29.68,East,90,0.0,0.0,63,0.00,,,0.00,VWS V14.01,2013-10-14 02:33:00,
2013-10-14 12:38:00,88.0,74.3,29.68,East,90,0.0,0.0,64,0.00,,,0.00,VWS V14.01,2013-10-14 02:38:00,
2013-10-14 12:43:00,87.8,73.6,29.68,East,90,0.0,0.0,63,0.00,,,0.00,VWS V14.01,2013-10-14 02:43:00,
2013-10-14 12:48:00,88.0,73.8,29.68,East,90,0.0,0.0,63,0.00,,,0.00,VWS V14.01,2013-10-14 02:48:00,
2013-10-14 12:53:00,87.8,73.6,29.68,East,90,0.0,0.0,63,0.00,,,0.00,VWS V14.01,2013-10-14 02:53:00,
2013-10-14 12:58:00,87.3,73.6,29.68,East,90,0.0,0.0,64,0.00,,,0.00,VWS V14.01,2013-10-14 02:58:00,
2013-10-14 13:03:00,87.3,73.6,29.65,East,90,0.0,0.0,64,0.00,,,0.00,VWS V14.01,2013-10-14 03:03:00,
2013-10-14 13:08:00,87.4,73.8,29.65,East,90,0.0,0.0,64,0.00,,,0.00,VWS V14.01,2013-10-14 03:08:00,
2013-10-14 13:13:00,87.6,73.9,29.65,East,90,0.0,0.0,64,0.00,,,0.00,VWS V14.01,2013-10-14 03:13:00,
2013-10-14 13:18:00,88.0,73.8,29.65,East,90,0.0,0.0,63,0.00,,,0.00,VWS V14.01,2013-10-14 03:18:00,
2013-10-14 13:23:00,87.8,74.1,29.65,East,90,0.0,0.0,64,0.00,,,0.00,VWS V14.01,2013-10-14 03:23:00,
2013-10-14 13:28:00,87.8,74.1,29.65,East,90,0.0,0.0,64,0.00,,,0.00,VWS V14.01,2013-10-14 03:28:00,
2013-10-14 13:34:00,87.6,73.9,29.62,East,90,0.0,0.0,64,0.00,,,0.00,VWS V14.01,2013-10-14 03:34:00,
2013-10-14 13:39:00,87.8,74.1,29.62,East,90,0.0,0.0,64,0.00,,,0.00,VWS V14.01,2013-10-14 03:39:00,
2013-10-14 13:44:00,87.4,73.8,29.62,East,90,0.0,0.0,64,0.00,,,0.00,VWS V14.01,2013-10-14 03:44:00,
2013-10-14 13:49:00,87.3,73.6,29.62,East,90,0.0,0.0,64,0.00,,,0.00,VWS V14.01,2013-10-14 03:49:00,
2013-10-14 13:54:00,87.3,73.6,29.62,East,90,0.0,0.0,64,0.00,,,0.00,VWS V14.01,2013-10-14 03:54:00,
2013-10-14 13:59:00,87.1,73.9,29.62,East,90,0.0,0.0,65,0.00,,,0.00,VWS V14.01,2013-10-14 03:59:00,
2013-10-14 14:01:00,87.4,74.2,29.62,East,90,0.0,0.0,65,0.00,,,0.00,VWS V14.01,2013-10-14 04:01:00,
2013-10-14 14:03:00,88.0,74.8,29.62,East,90,0.0,0.0,65,0.00,,,0.00,VWS V14.01,2013-10-14 04:03:00,
2013-10-14 14:05:00,87.6,73.9,29.62,East,90,0.0,0.0,64,0.00,,,0.00,VWS V14.01,2013-10-14 04:05:00,
2013-10-14 14:08:00,88.0,74.8,29.62,East,90,0.0,0.0,65,0.00,,,0.00,VWS V14.01,2013-10-14 04:08:00,
2013-10-14 14:13:00,87.8,74.6,29.62,East,90,0.0,0.0,65,0.00,,,0.00,VWS V14.01,2013-10-14 04:13:00,
2013-10-14 14:18:00,88.0,74.8,29.62,East,90,0.0,0.0,65,0.00,,,0.00,VWS V14.01,2013-10-14 04:18:00,
2013-10-14 14:23:00,87.6,74.4,29.62,East,90,0.0,0.0,65,0.00,,,0.00,VWS V14.01,2013-10-14 04:23:00,
2013-10-14 14:28:00,87.1,73.9,29.62,East,90,0.0,0.0,65,0.00,,,0.00,VWS V14.01,2013-10-14 04:28:00,
2013-10-14 14:33:00,87.4,74.2,29.62,East,90,0.0,0.0,65,0.00,,,0.00,VWS V14.01,2013-10-14 04:33:00,
2013-10-14 14:38:00,87.3,74.1,29.62,East,90,0.0,0.0,65,0.00,,,0.00,VWS V14.01,2013-10-14 04:38:00,
2013-10-14 14:43:00,87.1,73.9,29.62,East,90,0.0,0.0,65,0.00,,,0.00,VWS V14.01,2013-10-14 04:43:00,
2013-10-14 14:48:00,87.4,74.2,29.62,East,90,0.0,0.0,65,0.00,,,0.00,VWS V14.01,2013-10-14 04:48:00,
2013-10-14 14:53:00,87.6,74.4,29.62,East,90,0.0,0.0,65,0.00,,,0.00,VWS V14.01,2013-10-14 04:53:00,
2013-10-14 14:58:00,87.6,74.4,29.62,East,90,0.0,0.0,65,0.00,,,0.00,VWS V14.01,2013-10-14 04:58:00,
2013-10-14 15:03:00,87.1,73.9,29.62,East,90,0.0,0.0,65,0.00,,,0.00,VWS V14.01,2013-10-14 05:03:00,
2013-10-14 15:08:00,86.9,73.7,29.62,East,90,0.0,0.0,65,0.00,,,0.00,VWS V14.01,2013-10-14 05:08:00,
2013-10-14 15:13:00,87.1,73.9,29.59,East,90,0.0,0.0,65,0.00,,,0.00,VWS V14.01,2013-10-14 05:13:00,
2013-10-14 15:19:00,87.1,73.9,29.59,East,90,0.0,0.0,65,0.00,,,0.00,VWS V14.01,2013-10-14 05:19:00,
2013-10-14 15:24:00,87.3,74.1,29.59,East,90,0.0,0.0,65,0.00,,,0.00,VWS V14.01,2013-10-14 05:24:00,
2013-10-14 15:29:00,87.1,73.9,29.59,East,90,0.0,0.0,65,0.00,,,0.00,VWS V14.01,2013-10-14 05:29:00,
2013-10-14 15:34:00,86.7,73.6,29.59,East,90,0.0,0.0,65,0.00,,,0.00,VWS V14.01,2013-10-14 05:34:00,
2013-10-14 15:39:00,86.2,73.0,29.59,East,90,0.0,0.0,65,0.00,,,0.00,VWS V14.01,2013-10-14 05:39:00,
2013-10-14 15:44:00,86.0,72.9,29.59,East,90,0.0,0.0,65,0.00,,,0.00,VWS V14.01,2013-10-14 05:44:00,
2013-10-14 15:49:00,86.2,73.0,29.59,East,90,0.0,0.0,65,0.00,,,0.00,VWS V14.01,2013-10-14 05:49:00,
2013-10-14 15:54:00,85.6,73.0,29.59,East,90,0.0,0.0,66,0.00,,,0.00,VWS V14.01,2013-10-14 05:54:00,
2013-10-14 15:59:00,86.0,72.9,29.59,East,90,0.0,0.0,65,0.00,,,0.00,VWS V14.01,2013-10-14 05:59:00,
2013-10-14 16:04:00,85.8,73.2,29.59,East,90,0.0,0.0,66,0.00,,,0.00,VWS V14.01,2013-10-14 06:04:00,
2013-10-14 16:09:00,85.5,72.8,29.59,East,90,0.0,0.0,66,0.00,,,0.00,VWS V14.01,2013-10-14 06:09:00,
2013-10-14 16:14:00,85.5,72.8,29.59,East,90,0.0,0.0,66,0.00,,,0.00,VWS V14.01,2013-10-14 06:14:00,
2013-10-14 16:19:00,85.3,73.1,29.59,East,90,0.0,0.0,67,0.00,,,0.00,VWS V14.01,2013-10-14 06:19:00,
2013-10-14 16:24:00,85.3,73.1,29.59,East,90,0.0,0.0,67,0.00,,,0.00,VWS V14.01,2013-10-14 06:24:00,
2013-10-14 16:29:00,85.1,72.9,29.59,East,90,0.0,0.0,67,0.00,,,0.00,VWS V14.01,2013-10-14 06:29:00,
2013-10-14 16:34:00,84.9,72.8,29.59,East,90,0.0,0.0,67,0.00,,,0.00,VWS V14.01,2013-10-14 06:34:00,
2013-10-14 16:39:00,85.1,72.9,29.59,East,90,0.0,0.0,67,0.00,,,0.00,VWS V14.01,2013-10-14 06:39:00,
2013-10-14 16:44:00,84.7,72.6,29.59,East,90,0.0,0.0,67,0.00,,,0.00,VWS V14.01,2013-10-14 06:44:00,
2013-10-14 16:49:00,84.6,72.4,29.62,East,90,0.0,0.0,67,0.00,,,0.00,VWS V14.01,2013-10-14 06:49:00,
2013-10-14 16:54:00,84.6,72.4,29.62,East,90,0.0,0.0,67,0.00,,,0.00,VWS V14.01,2013-10-14 06:54:00,
2013-10-14 16:59:00,84.2,72.5,29.62,East,90,0.0,0.0,68,0.00,,,0.00,VWS V14.01,2013-10-14 06:59:00,
2013-10-14 17:05:00,84.2,72.5,29.62,East,90,0.0,0.0,68,0.00,,,0.00,VWS V14.01,2013-10-14 07:05:00,
2013-10-14 17:10:00,84.0,72.8,29.62,East,90,0.0,0.0,69,0.00,,,0.00,VWS V14.01,2013-10-14 07:10:00,
2013-10-14 17:15:00,84.0,72.8,29.62,East,90,0.0,0.0,69,0.00,,,0.00,VWS V14.01,2013-10-14 07:15:00,
2013-10-14 17:20:00,84.0,72.8,29.62,East,90,0.0,0.0,69,0.00,,,0.00,VWS V14.01,2013-10-14 07:20:00,
2013-10-14 17:25:00,84.4,72.7,29.62,East,90,0.0,0.0,68,0.00,,,0.00,VWS V14.01,2013-10-14 07:25:00,
2013-10-14 17:30:00,84.0,72.3,29.62,East,90,0.0,0.0,68,0.00,,,0.00,VWS V14.01,2013-10-14 07:30:00,
2013-10-14 17:35:00,83.8,72.6,29.65,East,90,0.0,0.0,69,0.00,,,0.00,VWS V14.01,2013-10-14 07:35:00,
2013-10-14 17:40:00,83.8,72.6,29.65,East,90,0.0,0.0,69,0.00,,,0.00,VWS V14.01,2013-10-14 07:40:00,
2013-10-14 17:45:00,83.5,72.2,29.65,East,90,0.0,0.0,69,0.00,,,0.00,VWS V14.01,2013-10-14 07:45:00,
2013-10-14 17:50:00,83.8,73.0,29.65,East,90,0.0,0.0,70,0.00,,,0.00,VWS V14.01,2013-10-14 07:50:00,
2013-10-14 17:55:00,83.8,73.0,29.65,East,90,0.0,0.0,70,0.00,,,0.00,VWS V14.01,2013-10-14 07:55:00,
2013-10-14 18:00:00,83.8,73.0,29.65,East,90,0.0,0.0,70,0.00,,,0.00,VWS V14.01,2013-10-14 08:00:00,
2013-10-14 18:05:00,83.7,72.8,29.65,East,90,0.0,0.0,70,0.00,,,0.00,VWS V14.01,2013-10-14 08:05:00,
2013-10-14 18:10:00,83.5,73.1,29.65,East,90,0.0,0.0,71,0.00,,,0.00,VWS V14.01,2013-10-14 08:10:00,
2013-10-14 18:15:00,83.5,73.1,29.65,East,90,0.0,0.0,71,0.00,,,0.00,VWS V14.01,2013-10-14 08:15:00,
2013-10-14 18:20:00,83.1,73.2,29.65,East,90,0.0,0.0,72,0.00,,,0.00,VWS V14.01,2013-10-14 08:20:00,
2013-10-14 18:25:00,83.1,73.6,29.65,East,90,0.0,0.0,73,0.00,,,0.00,VWS V14.01,2013-10-14 08:25:00,
2013-10-14 18:30:00,82.8,73.6,29.65,East,90,0.0,0.0,74,0.00,,,0.00,VWS V14.01,2013-10-14 08:30:00,
2013-10-14 18:36:00,82.6,73.5,29.62,East,90,0.0,0.0,74,0.00,,,0.00,VWS V14.01,2013-10-14 08:36:00,
2013-10-14 18:41:00,82.4,73.7,29.62,East,90,0.0,0.0,75,0.00,,,0.00,VWS V14.01,2013-10-14 08:41:00,
2013-10-14 18:46:00,82.2,73.5,29.62,East,90,0.0,0.0,75,0.00,,,0.00,VWS V14.01,2013-10-14 08:46:00,
2013-10-14 18:51:00,82.0,73.3,29.62,East,90,0.0,0.0,75,0.00,,,0.00,VWS V14.01,2013-10-14 08:51:00,
2013-10-14 18:56:00,81.9,73.6,29.62,East,90,0.0,0.0,76,0.00,,,0.00,VWS V14.01,2013-10-14 08:56:00,
2013-10-14 19:01:00,81.7,73.0,29.62,East,90,0.0,0.0,75,0.00,,,0.00,VWS V14.01,2013-10-14 09:01:00,
2013-10-14 19:06:00,81.9,73.6,29.65,East,90,0.0,0.0,76,0.00,,,0.00,VWS V14.01,2013-10-14 09:06:00,
2013-10-14 19:11:00,81.9,73.6,29.65,East,90,0.0,0.0,76,0.00,,,0.00,VWS V14.01,2013-10-14 09:11:00,
2013-10-14 19:16:00,82.0,73.7,29.65,East,90,0.0,0.0,76,0.00,,,0.00,VWS V14.01,2013-10-14 09:16:00,
2013-10-14 19:21:00,81.9,73.6,29.68,East,90,0.0,0.0,76,0.00,,,0.00,VWS V14.01,2013-10-14 09:21:00,
2013-10-14 19:26:00,81.9,73.6,29.68,East,90,0.0,0.0,76,0.00,,,0.00,VWS V14.01,2013-10-14 09:26:00,
2013-10-14 19:31:00,81.5,73.2,29.68,East,90,0.0,0.0,76,0.00,,,0.00,VWS V14.01,2013-10-14 09:31:00,
2013-10-14 19:36:00,81.5,73.2,29.65,East,90,0.0,0.0,76,0.00,,,0.00,VWS V14.01,2013-10-14 09:36:00,
2013-10-14 19:41:00,81.3,73.0,29.65,WNW,292,0.0,0.0,76,0.00,,,0.00,VWS V14.01,2013-10-14 09:41:00,
2013-10-14 19:46:00,81.7,73.8,29.68,WNW,292,0.0,0.0,77,0.00,,,0.00,VWS V14.01,2013-10-14 09:46:00,
2013-10-14 19:51:00,81.7,73.8,29.68,WNW,292,0.0,0.0,77,0.00,,,0.00,VWS V14.01,2013-10-14 09:51:00,
2013-10-14 19:57:00,81.7,73.8,29.68,WNW,292,0.0,0.0,77,0.00,,,0.00,VWS V14.01,2013-10-14 09:57:00,
2013-10-14 20:02:00,81.5,73.6,29.68,SSW,202,1.6,1.6,77,0.00,,,0.00,VWS V14.01,2013-10-14 10:02:00,
2013-10-14 20:07:00,81.5,73.6,29.68,SSW,202,1.6,1.6,77,0.00,,,0.00,VWS V14.01,2013-10-14 10:07:00,
2013-10-14 20:12:00,81.3,73.4,29.68,SSW,202,1.6,1.6,77,0.00,,,0.00,VWS V14.01,2013-10-14 10:12:00,
2013-10-14 20:17:00,81.0,73.1,29.68,SSW,202,1.6,1.6,77,0.00,,,0.00,VWS V14.01,2013-10-14 10:17:00,
2013-10-14 20:22:00,81.1,73.2,29.68,SSW,202,1.6,1.6,77,0.00,,,0.00,VWS V14.01,2013-10-14 10:22:00,
2013-10-14 20:27:00,80.8,72.9,29.68,South,180,2.5,2.5,77,0.00,,,0.00,VWS V14.01,2013-10-14 10:27:00,
2013-10-14 20:32:00,81.0,73.1,29.68,South,180,2.5,2.5,77,0.00,,,0.00,VWS V14.01,2013-10-14 10:32:00,
2013-10-14 20:37:00,81.0,73.1,29.68,South,180,2.5,2.5,77,0.00,,,0.00,VWS V14.01,2013-10-14 10:37:00,
2013-10-14 20:42:00,80.6,73.1,29.68,South,180,2.5,2.5,78,0.00,,,0.00,VWS V14.01,2013-10-14 10:42:00,
2013-10-14 20:47:00,80.8,73.3,29.68,South,180,2.5,2.5,78,0.00,,,0.00,VWS V14.01,2013-10-14 10:47:00,
2013-10-14 20:53:00,80.4,72.9,29.68,South,180,2.5,2.5,78,0.00,,,0.00,VWS V14.01,2013-10-14 10:53:00,
2013-10-14 20:58:00,80.2,73.1,29.68,South,180,2.5,2.5,79,0.00,,,0.00,VWS V14.01,2013-10-14 10:58:00,
2013-10-14 21:03:00,80.1,73.0,29.68,South,180,2.5,2.5,79,0.00,,,0.00,VWS V14.01,2013-10-14 11:03:00,
2013-10-14 21:08:00,80.4,73.3,29.68,South,180,2.5,2.5,79,0.00,,,0.00,VWS V14.01,2013-10-14 11:08:00,
2013-10-14 21:13:00,80.4,73.3,29.68,South,180,2.5,2.5,79,0.00,,,0.00,VWS V14.01,2013-10-14 11:13:00,
2013-10-14 21:18:00,80.4,73.3,29.71,South,180,2.5,2.5,79,0.00,,,0.00,VWS V14.01,2013-10-14 11:18:00,
2013-10-14 21:23:00,80.2,73.1,29.71,South,180,2.5,2.5,79,0.00,,,0.00,VWS V14.01,2013-10-14 11:23:00,
2013-10-14 21:28:00,80.2,73.1,29.71,South,180,2.5,2.5,79,0.00,,,0.00,VWS V14.01,2013-10-14 11:28:00,
2013-10-14 21:33:00,80.1,73.0,29.71,South,180,2.5,2.5,79,0.00,,,0.00,VWS V14.01,2013-10-14 11:33:00,
2013-10-14 21:38:00,80.2,73.1,29.71,South,180,2.5,2.5,79,0.00,,,0.00,VWS V14.01,2013-10-14 11:38:00,
2013-10-14 21:43:00,80.2,73.1,29.71,South,180,2.5,2.5,79,0.00,,,0.00,VWS V14.01,2013-10-14 11:43:00,
2013-10-14 21:49:00,80.1,73.0,29.71,South,180,2.5,2.5,79,0.00,,,0.00,VWS V14.01,2013-10-14 11:49:00,
2013-10-14 21:54:00,80.1,73.0,29.71,South,180,2.5,2.5,79,0.00,,,0.00,VWS V14.01,2013-10-14 11:54:00,
2013-10-14 21:59:00,79.7,73.0,29.71,South,180,2.5,2.5,80,0.00,,,0.00,VWS V14.01,2013-10-14 11:59:00,
2013-10-14 22:04:00,79.9,73.2,29.71,South,180,2.5,2.5,80,0.00,,,0.00,VWS V14.01,2013-10-14 12:04:00,
2013-10-14 22:09:00,79.7,72.6,29.71,South,180,2.5,2.5,79,0.00,,,0.00,VWS V14.01,2013-10-14 12:09:00,
2013-10-14 22:14:00,79.5,72.8,29.71,South,180,2.5,2.5,80,0.00,,,0.00,VWS V14.01,2013-10-14 12:14:00,
2013-10-14 22:19:00,79.3,72.6,29.71,South,180,2.5,2.5,80,0.00,,,0.00,VWS V14.01,2013-10-14 12:19:00,
2013-10-14 22:24:00,79.0,72.3,29.71,South,180,2.5,2.5,80,0.00,,,0.00,VWS V14.01,2013-10-14 12:24:00,
2013-10-14 22:29:00,79.2,72.5,29.71,South,180,2.5,2.5,80,0.00,,,0.00,VWS V14.01,2013-10-14 12:29:00,
2013-10-14 22:34:00,79.2,72.5,29.71,South,180,2.5,2.5,80,0.00,,,0.00,VWS V14.01,2013-10-14 12:34:00,
2013-10-14 22:39:00,79.2,72.5,29.71,South,180,2.5,2.5,80,0.00,,,0.00,VWS V14.01,2013-10-14 12:39:00,
2013-10-14 22:44:00,79.0,72.3,29.71,South,180,2.5,2.5,80,0.00,,,0.00,VWS V14.01,2013-10-14 12:44:00,
2013-10-14 22:49:00,79.2,72.5,29.71,South,180,2.5,2.5,80,0.00,,,0.00,VWS V14.01,2013-10-14 12:49:00,
2013-10-14 22:54:00,79.2,72.5,29.71,South,180,2.5,2.5,80,0.00,,,0.00,VWS V14.01,2013-10-14 12:54:00,
2013-10-14 22:59:00,79.3,72.6,29.71,South,180,2.5,2.5,80,0.00,,,0.00,VWS V14.01,2013-10-14 12:59:00,
2013-10-14 23:04:00,79.2,72.5,29.71,South,180,2.5,2.5,80,0.00,,,0.00,VWS V14.01,2013-10-14 13:04:00,
2013-10-14 23:09:00,79.2,72.5,29.71,South,180,2.5,2.5,80,0.00,,,0.00,VWS V14.01,2013-10-14 13:09:00,
2013-10-14 23:14:00,79.2,72.5,29.71,South,180,2.5,2.5,80,0.00,,,0.00,VWS V14.01,2013-10-14 13:14:00,
2013-10-14 23:20:00,79.3,72.6,29.71,South,180,2.5,2.5,80,0.00,,,0.00,VWS V14.01,2013-10-14 13:20:00,
2013-10-14 23:25:00,79.3,72.6,29.71,SSW,202,2.0,2.5,80,0.00,,,0.00,VWS V14.01,2013-10-14 13:25:00,
2013-10-14 23:30:00,79.3,72.6,29.71,SSW,202,2.0,2.0,80,0.00,,,0.00,VWS V14.01,2013-10-14 13:30:00,
2013-10-14 23:35:00,79.2,72.5,29.71,SSW,202,2.0,2.0,80,0.00,,,0.00,VWS V14.01,2013-10-14 13:35:00,
2013-10-14 23:40:00,79.2,72.8,29.71,SSW,202,2.0,2.0,81,0.00,,,0.00,VWS V14.01,2013-10-14 13:40:00,
2013-10-14 23:45:00,79.2,72.5,29.71,SSW,202,2.0,2.0,80,0.00,,,0.00,VWS V14.01,2013-10-14 13:45:00,
2013-10-14 23:50:00,79.2,72.5,29.71,SSW,202,2.0,2.0,80,0.00,,,0.00,VWS V14.01,2013-10-14 13:50:00,
2013-10-14 23:55:00,78.8,71.7,29.71,SSW,202,2.0,2.0,79,0.00,,,0.00,VWS V14.01,2013-10-14 13:55:00,